North Bend, OR

6:23 PM PST on January 17, 2017 (GMT -0800)
North Bend Municipal

Weather History for KOTH - August, 2014

Change the Weather History Date:

Wednesday, August 6, 2014

  Actual Average Record
Temperature  
Mean Temperature 62 °F 59 °F  
Max Temperature 68 °F 65 °F 81 °F (1902)
Min Temperature 55 °F 53 °F 43 °F (1937)
Degree Days  
Heating Degree Days 3 6  
Month to date heating degree days 25 36  
Since 1 June heating degree days 368 500  
Since 1 July heating degree days 171 233  
Cooling Degree Days 0 0  
Month to date cooling degree days 0 0  
Year to date cooling degree days 12 0  
Since 1 June cooling degree days 0 0  
Growing Degree Days 12 (Base 50)    
Moisture  
Dew Point 59 °F    
Average Humidity 93    
Maximum Humidity 100    
Minimum Humidity 78    
Precipitation  
Precipitation 0.00 in 0.01 in 0.14 in (1957)
Month to date precipitation 0.00 0.07  
Year to date precipitation 22.43 36.69  
Sea Level Pressure  
Sea Level Pressure 30.13 in    
Wind  
Wind Speed 10 mph (NNW)    
Max Wind Speed 23 mph    
Max Gust Speed 30 mph    
Visibility 10 miles    
Events      
T = Trace of Precipitation, MM = Missing Value Source: NWS Daily Summary

Daily Weather History Graph

Daily Weather History Graph

Search for Another Location

Airport or City:

Trip Planner

Search our weather history database for the weather conditions in past years. The results will help you decide how hot, cold, wet, or windy it might be!

Date:

Astronomy

Aug. 06, 2014 Rise Set
Actual Time 6:12 AM PDT 8:32 PM PDT
Civil Twilight 5:40 AM PDT 9:04 PM PDT
Nautical Twilight 5:00 AM PDT 9:43 PM PDT
Astronomical Twilight 4:16 AM PDT 10:27 PM PDT
Moon 4:57 PM PDT (8/6) 1:51 AM PDT (8/6)
Length of Visible Light 15h 24m
Length of Day
14h 20m
Waxing Gibbous, 78% of the Moon is Illuminated
Aug 6
Waxing Gibbous
Aug 10
Full
Aug 17
Last Quarter
Aug 25
New
Sep 2
First Quarter

Hourly Weather History & Observations

Time (PDT) Temp. Dew Point Humidity Pressure Visibility Wind Dir Wind Speed Gust Speed Precip Events Conditions
12:15 AM 60.8 °F 60.8 °F 100% 30.17 in 10.0 mi North 4.6 mph - N/A   Overcast
12:35 AM 60.8 °F 60.8 °F 100% 30.17 in 3.0 mi North 4.6 mph - N/A   Overcast
12:55 AM 60.8 °F 60.8 °F 100% 30.17 in 10.0 mi North 4.6 mph - N/A   Overcast
1:15 AM 60.8 °F 60.8 °F 100% 30.17 in 10.0 mi NNW 3.5 mph - N/A   Overcast
1:35 AM 60.8 °F 60.8 °F 100% 30.17 in 8.0 mi North 4.6 mph - N/A   Overcast
1:55 AM 60.8 °F 60.8 °F 100% 30.17 in 10.0 mi NNW 3.5 mph - N/A   Overcast
2:15 AM 60.8 °F 60.8 °F 100% 30.17 in 6.0 mi Calm Calm - N/A   Overcast
2:35 AM 60.8 °F 60.8 °F 100% 30.17 in 9.0 mi NNW 3.5 mph - N/A   Overcast
2:55 AM 60.8 °F 60.8 °F 100% 30.17 in 10.0 mi Calm Calm - N/A   Overcast
3:15 AM 60.8 °F 60.8 °F 100% 30.17 in 10.0 mi NNW 3.5 mph - N/A   Overcast
3:35 AM 60.8 °F 60.8 °F 100% 30.16 in 5.0 mi Calm Calm - N/A   Overcast
3:55 AM 60.8 °F 60.8 °F 100% 30.17 in 5.0 mi North 3.5 mph - N/A   Overcast
4:15 AM 60.8 °F 60.8 °F 100% 30.16 in 5.0 mi NNW 3.5 mph - N/A   Overcast
4:35 AM 59.0 °F 59.0 °F 100% 30.16 in 7.0 mi North 5.8 mph - N/A   Overcast
4:55 AM 60.8 °F 60.8 °F 100% 30.16 in 10.0 mi North 3.5 mph - N/A   Overcast
5:15 AM 60.8 °F 60.8 °F 100% 30.16 in 10.0 mi North 4.6 mph - N/A   Overcast
5:35 AM 60.8 °F 59.0 °F 94% 30.16 in 10.0 mi NNE 5.8 mph - N/A   Overcast
5:55 AM 60.8 °F 59.0 °F 94% 30.16 in 10.0 mi North 8.1 mph - N/A   Overcast
6:15 AM 60.8 °F 60.8 °F 100% 30.16 in 10.0 mi North 6.9 mph - N/A   Overcast
6:35 AM 60.8 °F 60.8 °F 100% 30.16 in 10.0 mi North 5.8 mph - N/A   Overcast
6:55 AM 59.0 °F 59.0 °F 100% 30.16 in 10.0 mi NW 3.5 mph - N/A   Overcast
7:15 AM 59.0 °F 59.0 °F 100% 30.16 in 10.0 mi NNW 3.5 mph - N/A   Overcast
7:35 AM 59.0 °F 59.0 °F 100% 30.17 in 10.0 mi NNW 5.8 mph - N/A   Overcast
7:55 AM 57.2 °F 57.2 °F 100% 30.17 in 10.0 mi NNW 4.6 mph - N/A   Overcast
8:15 AM 59.0 °F 57.2 °F 94% 30.17 in 10.0 mi North 4.6 mph - N/A   Overcast
8:35 AM 59.0 °F 59.0 °F 100% 30.16 in 10.0 mi North 6.9 mph - N/A   Overcast
8:55 AM 60.8 °F 59.0 °F 94% 30.17 in 10.0 mi North 5.8 mph - N/A   Overcast
9:15 AM 60.8 °F 59.0 °F 94% 30.17 in 10.0 mi North 5.8 mph - N/A   Overcast
9:35 AM 62.6 °F 60.8 °F 94% 30.16 in 10.0 mi North 3.5 mph - N/A   Overcast
9:55 AM 62.6 °F 60.8 °F 94% 30.16 in 10.0 mi NNW 5.8 mph - N/A   Overcast
10:15 AM 62.6 °F 60.8 °F 94% 30.16 in 10.0 mi North 4.6 mph - N/A   Overcast
10:35 AM 64.4 °F 60.8 °F 88% 30.15 in 10.0 mi NW 3.5 mph - N/A   Mostly Cloudy
10:55 AM 64.4 °F 60.8 °F 88% 30.15 in 10.0 mi WNW 5.8 mph - N/A   Partly Cloudy
11:15 AM 64.4 °F 59.0 °F 83% 30.15 in 10.0 mi NNW 6.9 mph - N/A   Clear
11:35 AM 66.2 °F 60.8 °F 83% 30.15 in 10.0 mi NNW 6.9 mph - N/A   Clear
11:55 AM 64.4 °F 59.0 °F 83% 30.15 in 10.0 mi NNW 10.4 mph - N/A   Clear
12:15 PM 66.2 °F 59.0 °F 78% 30.15 in 10.0 mi NNW 9.2 mph - N/A   Clear
12:35 PM 64.4 °F 59.0 °F 83% 30.15 in 10.0 mi NW 11.5 mph - N/A   Clear
12:55 PM 64.4 °F 59.0 °F 83% 30.14 in 10.0 mi NNW 10.4 mph - N/A   Clear
1:15 PM 64.4 °F 60.8 °F 88% 30.13 in 10.0 mi NNW 12.7 mph - N/A   Clear
1:35 PM 64.4 °F 60.8 °F 88% 30.13 in 10.0 mi North 13.8 mph - N/A   Clear
1:55 PM 64.4 °F 60.8 °F 88% 30.13 in 10.0 mi North 12.7 mph - N/A   Clear
2:15 PM 64.4 °F 60.8 °F 88% 30.13 in 10.0 mi NNW 10.4 mph - N/A   Clear
2:35 PM 64.4 °F 59.0 °F 83% 30.12 in 10.0 mi North 13.8 mph - N/A   Clear
2:55 PM 62.6 °F 59.0 °F 88% 30.12 in 10.0 mi NNW 17.3 mph - N/A   Scattered Clouds
3:15 PM 62.6 °F 59.0 °F 88% 30.11 in 10.0 mi North 15.0 mph - N/A   Overcast
3:35 PM 64.4 °F 59.0 °F 83% 30.11 in 10.0 mi NNW 12.7 mph - N/A   Mostly Cloudy
3:55 PM 66.2 °F 59.0 °F 78% 30.10 in 10.0 mi NNW 13.8 mph - N/A   Clear
4:15 PM 66.2 °F 60.8 °F 83% 30.09 in 10.0 mi North 18.4 mph 24.2 mph N/A   Clear
4:35 PM 68.0 °F 60.8 °F 78% 30.08 in 10.0 mi North 16.1 mph 25.3 mph N/A   Clear
4:55 PM 66.2 °F 60.8 °F 83% 30.08 in 10.0 mi North 20.7 mph 27.6 mph N/A   Clear
5:15 PM 66.2 °F 60.8 °F 83% 30.08 in 10.0 mi North 24.2 mph 31.1 mph N/A   Clear
5:35 PM 64.4 °F 60.8 °F 88% 30.08 in 10.0 mi North 24.2 mph 31.1 mph N/A   Clear
5:55 PM 62.6 °F 60.8 °F 94% 30.08 in 10.0 mi North 23.0 mph 29.9 mph N/A   Clear
6:15 PM 62.6 °F 60.8 °F 94% 30.08 in 10.0 mi North 20.7 mph 28.8 mph N/A   Clear
6:35 PM 62.6 °F 59.0 °F 88% 30.08 in 10.0 mi North 19.6 mph 25.3 mph N/A   Clear
6:55 PM 60.8 °F 59.0 °F 94% 30.07 in 10.0 mi North 21.9 mph 27.6 mph N/A   Clear
7:15 PM 60.8 °F 59.0 °F 94% 30.07 in 10.0 mi North 21.9 mph 28.8 mph N/A   Partly Cloudy
7:35 PM 60.8 °F 60.8 °F 100% 30.07 in 10.0 mi North 17.3 mph 24.2 mph N/A   Clear
7:55 PM 60.8 °F 59.0 °F 94% 30.07 in 10.0 mi North 15.0 mph - N/A   Clear
8:15 PM 60.8 °F 59.0 °F 94% 30.07 in 10.0 mi North 17.3 mph 20.7 mph N/A   Clear
8:35 PM 59.0 °F 57.2 °F 94% 30.08 in 10.0 mi North 17.3 mph - N/A   Clear
9:15 PM 57.2 °F 57.2 °F 100% 30.08 in 10.0 mi North 13.8 mph - N/A   Clear
9:35 PM 57.2 °F 57.2 °F 100% 30.09 in 10.0 mi North 13.8 mph - N/A   Clear
9:55 PM 57.2 °F 55.4 °F 94% 30.09 in 10.0 mi North 11.5 mph 16.1 mph N/A   Clear
10:15 PM 57.2 °F 55.4 °F 94% 30.09 in 10.0 mi North 16.1 mph - N/A   Clear
10:35 PM 57.2 °F 55.4 °F 94% 30.10 in 10.0 mi North 11.5 mph - N/A   Clear
10:55 PM 57.2 °F 55.4 °F 94% 30.09 in 10.0 mi North 5.8 mph - N/A   Clear
11:15 PM 57.2 °F 55.4 °F 94% 30.10 in 10.0 mi NNW 5.8 mph - N/A   Clear
11:35 PM 57.2 °F 57.2 °F 100% 30.10 in 10.0 mi North 6.9 mph - N/A   Clear
11:55 PM 57.2 °F 57.2 °F 100% 30.10 in 10.0 mi North 4.6 mph - N/A   Clear